• Em Portugal
  • Lista de países
  • Para 7 dias
  • Temperatura da água
  • Mapas de satélite
  • Mapa do tempo
  • Widgets de tempo
  • user-avatar
    Iniciar Sessão

    Previsão horária em Karibib

    Hoje, 23 Outubro, Segunda-feira

    Tempo Temperatura Precipitação Vento Pressão Humidade
    00:00 +23°C° 0 mm 1 m/s 665 mmHg 31%
    01:00 +22°C° 0 mm 1 m/s 665 mmHg 34%
    02:00 +19°C° 0 mm 0 m/s 665 mmHg 34%
    03:00 +19°C° 0 mm 0 m/s 664 mmHg 34%
    04:00 +19°C° 0 mm 0 m/s 664 mmHg 34%
    05:00 +20°C° 0 mm 0 m/s 665 mmHg 31%
    06:00 +22°C° 0 mm 0 m/s 665 mmHg 28%
    07:00 +23°C° 0 mm 0 m/s 666 mmHg 25%
    08:00 +27°C° 0 mm 1 m/s 666 mmHg 22%
    09:00 +29°C° 0 mm 1 m/s 667 mmHg 20%
    10:00 +32°C° 0 mm 1 m/s 667 mmHg 17%
    11:00 +34°C° 0 mm 2 m/s 667 mmHg 15%
    12:00 +35°C° 0 mm 4 m/s 667 mmHg 13%
    13:00 +36°C° 0 mm 5 m/s 666 mmHg 11%
    14:00 +36°C° 0 mm 6 m/s 666 mmHg 12%
    15:00 +35°C° 0 mm 6 m/s 666 mmHg 13%
    16:00 +34°C° 0 mm 7 m/s 665 mmHg 14%
    17:00 +32°C° 0 mm 6 m/s 665 mmHg 17%
    18:00 +29°C° 0 mm 5 m/s 665 mmHg 20%
    19:00 +27°C° 0 mm 3 m/s 665 mmHg 23%
    20:00 +26°C° 0 mm 3 m/s 665 mmHg 25%
    21:00 +25°C° 0 mm 2 m/s 665 mmHg 26%
    22:00 +24°C° 0 mm 1 m/s 665 mmHg 28%
    23:00 +24°C° 0 mm 1 m/s 665 mmHg 28%

    Amanhã, 24 Outubro, Terça-feira

    Tempo Temperatura Precipitação Vento Pressão Humidade
    00:00 +24°C° 0 mm 1 m/s 664 mmHg 27%
    01:00 +23°C° 0 mm 1 m/s 664 mmHg 27%
    02:00 +23°C° 0 mm 1 m/s 664 mmHg 26%
    03:00 +23°C° 0 mm 1 m/s 663 mmHg 26%
    04:00 +22°C° 0 mm 1 m/s 663 mmHg 26%
    05:00 +24°C° 0 mm 1 m/s 664 mmHg 23%
    06:00 +26°C° 0 mm 1 m/s 665 mmHg 21%
    07:00 +28°C° 0 mm 2 m/s 665 mmHg 19%
    08:00 +30°C° 0 mm 3 m/s 666 mmHg 20%
    09:00 +33°C° 0 mm 4 m/s 666 mmHg 21%
    10:00 +35°C° 0 mm 5 m/s 667 mmHg 22%
    11:00 +36°C° 0 mm 5 m/s 666 mmHg 20%
    12:00 +37°C° 0 mm 5 m/s 666 mmHg 19%
    13:00 +38°C° 0 mm 4 m/s 666 mmHg 17%
    14:00 +37°C° 0,1 mm 5 m/s 665 mmHg 17%
    15:00 +36°C° 0,1 mm 6 m/s 665 mmHg 18%
    16:00 +35°C° 0,1 mm 6 m/s 665 mmHg 19%
    17:00 +33°C° 0,1 mm 5 m/s 665 mmHg 21%
    18:00 +30°C° 0,1 mm 4 m/s 665 mmHg 23%
    19:00 +28°C° 0,1 mm 3 m/s 665 mmHg 25%
    20:00 +27°C° 0 mm 2 m/s 666 mmHg 25%
    21:00 +27°C° 0 mm 2 m/s 666 mmHg 26%
    22:00 +26°C° 0 mm 1 m/s 666 mmHg 27%
    23:00 +26°C° 0 mm 1 m/s 666 mmHg 27%

    Depois de amanhã, 25 Outubro, Quarta-feira

    Tempo Temperatura Precipitação Vento Pressão Humidade
    00:00 +25°C° 0 mm 1 m/s 666 mmHg 27%
    01:00 +25°C° 0 mm 1 m/s 665 mmHg 27%
    02:00 +25°C° 0 mm 1 m/s 665 mmHg 28%
    03:00 +25°C° 0 mm 1 m/s 665 mmHg 29%
    04:00 +25°C° 0 mm 1 m/s 664 mmHg 30%
    05:00 +25°C° 0,1 mm 1 m/s 665 mmHg 29%
    06:00 +26°C° 0,1 mm 1 m/s 665 mmHg 29%
    07:00 +27°C° 0,1 mm 1 m/s 665 mmHg 28%
    08:00 +28°C° 0 mm 1 m/s 666 mmHg 25%
    09:00 +30°C° 0 mm 1 m/s 666 mmHg 22%
    10:00 +31°C° 0 mm 1 m/s 666 mmHg 19%
    11:00 +32°C° 0 mm 2 m/s 666 mmHg 17%
    12:00 +34°C° 0 mm 3 m/s 666 mmHg 16%
    13:00 +35°C° 0 mm 4 m/s 665 mmHg 15%
    14:00 +35°C° 0 mm 5 m/s 665 mmHg 15%
    15:00 +34°C° 0 mm 6 m/s 665 mmHg 15%
    16:00 +33°C° 0 mm 7 m/s 664 mmHg 16%
    17:00 +32°C° 0 mm 6 m/s 664 mmHg 17%
    18:00 +29°C° 0 mm 5 m/s 665 mmHg 19%
    19:00 +27°C° 0 mm 4 m/s 665 mmHg 21%
    20:00 +26°C° 0 mm 3 m/s 665 mmHg 22%
    21:00 +26°C° 0 mm 2 m/s 665 mmHg 22%
    22:00 +25°C° 0 mm 1 m/s 666 mmHg 23%
    23:00 +25°C° 0 mm 1 m/s 665 mmHg 24%

    26 Outubro, Quinta-feira

    Tempo Temperatura Precipitação Vento Pressão Humidade
    00:00 +24°C° 0 mm 1 m/s 664 mmHg 24%
    01:00 +21°C° 0 mm 0 m/s 664 mmHg 25%
    02:00 +21°C° 0 mm 0 m/s 663 mmHg 26%
    03:00 +20°C° 0 mm 0 m/s 663 mmHg 27%
    04:00 +19°C° 0 mm 0 m/s 663 mmHg 28%
    05:00 +20°C° 0 mm 0 m/s 663 mmHg 25%
    06:00 +22°C° 0 mm 0 m/s 664 mmHg 22%
    07:00 +23°C° 0 mm 0 m/s 665 mmHg 19%
    08:00 +27°C° 0 mm 1 m/s 665 mmHg 16%
    09:00 +29°C° 0 mm 1 m/s 665 mmHg 13%
    10:00 +31°C° 0 mm 1 m/s 666 mmHg 9%
    11:00 +33°C° 0 mm 3 m/s 665 mmHg 9%
    12:00 +34°C° 0 mm 4 m/s 665 mmHg 9%
    13:00 +35°C° 0 mm 5 m/s 665 mmHg 8%
    14:00 +35°C° 0 mm 6 m/s 664 mmHg 9%
    15:00 +34°C° 0 mm 7 m/s 664 mmHg 10%
    16:00 +33°C° 0 mm 7 m/s 664 mmHg 11%
    17:00 +30°C° 0 mm 6 m/s 664 mmHg 14%
    18:00 +28°C° 0 mm 5 m/s 664 mmHg 17%
    19:00 +26°C° 0 mm 4 m/s 664 mmHg 20%
    20:00 +25°C° 0 mm 3 m/s 664 mmHg 23%
    21:00 +24°C° 0 mm 3 m/s 664 mmHg 26%
    22:00 +23°C° 0 mm 2 m/s 664 mmHg 29%
    23:00 +21°C° 0 mm 2 m/s 663 mmHg 31%

    27 Outubro, Sexta-feira

    Tempo Temperatura Precipitação Vento Pressão Humidade
    00:00 +21°C° 0 mm 1 m/s 663 mmHg 33%
    01:00 +20°C° 0 mm 1 m/s 662 mmHg 34%
    02:00 +19°C° 0 mm 1 m/s 662 mmHg 36%
    03:00 +19°C° 0 mm 1 m/s 662 mmHg 38%
    04:00 +18°C° 0 mm 1 m/s 661 mmHg 39%
    05:00 +19°C° 0 mm 1 m/s 662 mmHg 35%
    06:00 +21°C° 0 mm 1 m/s 663 mmHg 31%
    07:00 +20°C° 0 mm 0 m/s 664 mmHg 28%
    08:00 +22°C° 0 mm 0 m/s 664 mmHg 22%
    09:00 +27°C° 0 mm 1 m/s 664 mmHg 16%
    10:00 +29°C° 0 mm 1 m/s 664 mmHg 10%
    11:00 +30°C° 0 mm 1 m/s 664 mmHg 9%
    12:00 +32°C° 0 mm 2 m/s 664 mmHg 7%
    13:00 +34°C° 0 mm 3 m/s 663 mmHg 6%
    14:00 +34°C° 0 mm 4 m/s 663 mmHg 7%
    15:00 +34°C° 0 mm 5 m/s 663 mmHg 8%
    16:00 +34°C° 0 mm 6 m/s 663 mmHg 10%
    17:00 +32°C° 0 mm 5 m/s 663 mmHg 15%
    18:00 +28°C° 0 mm 4 m/s 663 mmHg 20%
    19:00 +26°C° 0 mm 4 m/s 663 mmHg 25%
    20:00 +25°C° 0 mm 3 m/s 663 mmHg 27%
    21:00 +24°C° 0 mm 2 m/s 663 mmHg 30%
    22:00 +23°C° 0 mm 1 m/s 663 mmHg 32%
    23:00 +22°C° 0 mm 1 m/s 663 mmHg 33%

    28 Outubro, Sábado

    Tempo Temperatura Precipitação Vento Pressão Humidade
    00:00 +22°C° 0 mm 1 m/s 662 mmHg 34%
    01:00 +21°C° 0 mm 1 m/s 662 mmHg 35%
    02:00 +21°C° 0 mm 1 m/s 662 mmHg 33%
    03:00 +20°C° 0 mm 2 m/s 662 mmHg 32%
    04:00 +20°C° 0 mm 3 m/s 662 mmHg 30%
    05:00 +21°C° 0 mm 4 m/s 663 mmHg 25%
    06:00 +22°C° 0 mm 4 m/s 663 mmHg 20%
    07:00 +23°C° 0 mm 5 m/s 664 mmHg 15%
    08:00 +27°C° 0 mm 6 m/s 664 mmHg 13%
    09:00 +29°C° 0 mm 6 m/s 664 mmHg 11%
    10:00 +33°C° 0 mm 7 m/s 665 mmHg 9%
    11:00 +34°C° 0 mm 6 m/s 664 mmHg 8%
    12:00 +35°C° 0 mm 5 m/s 664 mmHg 7%
    13:00 +37°C° 0 mm 4 m/s 664 mmHg 6%
    14:00 +37°C° 0 mm 4 m/s 663 mmHg 7%
    15:00 +36°C° 0 mm 4 m/s 663 mmHg 8%
    16:00 +36°C° 0 mm 4 m/s 663 mmHg 8%
    17:00 +33°C° 0 mm 4 m/s 662 mmHg 14%
    18:00 +30°C° 0 mm 4 m/s 662 mmHg 19%
    19:00 +27°C° 0 mm 4 m/s 662 mmHg 24%
    20:00 +26°C° 0 mm 3 m/s 662 mmHg 26%
    21:00 +25°C° 0 mm 3 m/s 662 mmHg 29%
    22:00 +24°C° 0 mm 2 m/s 662 mmHg 31%
    23:00 +23°C° 0 mm 1 m/s 662 mmHg 31%

    29 Outubro, Domingo

    Tempo Temperatura Precipitação Vento Pressão Humidade
    00:00 +22°C° 0 mm 1 m/s 661 mmHg 32%
    01:00 +20°C° 0 mm 0 m/s 661 mmHg 32%
    02:00 +22°C° 0 mm 1 m/s 661 mmHg 31%
    03:00 +21°C° 0 mm 1 m/s 661 mmHg 30%
    04:00 +21°C° 0 mm 1 m/s 661 mmHg 29%
    05:00 +22°C° 0 mm 3 m/s 662 mmHg 25%
    06:00 +25°C° 0 mm 4 m/s 663 mmHg 20%
    07:00 +27°C° 0 mm 6 m/s 664 mmHg 16%
    08:00 +29°C° 0 mm 7 m/s 664 mmHg 15%
    09:00 +33°C° 0 mm 7 m/s 665 mmHg 15%
    10:00 +35°C° 0 mm 8 m/s 665 mmHg 15%
    11:00 +36°C° 0 mm 7 m/s 664 mmHg 15%
    12:00 +38°C° 0 mm 6 m/s 664 mmHg 15%
    13:00 +39°C° 0 mm 5 m/s 664 mmHg 14%
    14:00 +37°C° 0,2 mm 5 m/s 664 mmHg 17%
    15:00 +36°C° 0,2 mm 5 m/s 663 mmHg 19%
    16:00 +35°C° 0,2 mm 5 m/s 663 mmHg 22%
    17:00 +33°C° 1,1 mm 5 m/s 664 mmHg 26%
    18:00 +32°C° 1,1 mm 5 m/s 664 mmHg 29%
    19:00 +29°C° 1,1 mm 6 m/s 664 mmHg 33%
    20:00 +28°C° 1,2 mm 6 m/s 665 mmHg 38%
    21:00 +27°C° 1,2 mm 6 m/s 665 mmHg 43%
    22:00 +26°C° 1,2 mm 6 m/s 666 mmHg 48%
    23:00 +26°C° 0,5 mm 6 m/s 666 mmHg 48%
    Mostrar mais